sat.trackr.live / text

‹ back to catalog

STARLINK-36699

NORAD 67652 · 2026-022E

PAYLOAD ACTIVE UNKNOWN

§ Identity

Operator
Country
US
Launch date
2026-02-02
Launch site
AFWTR
Launch vehicle
Mass (kg)
RCS (m²)

Purposes: comms

External: N2YO · Heavens-Above · Gunter

§ Orbital elements

Epoch: 2026-05-25T02:05:40.585920Z

Period
93.91 min
Inclination
97.2860°
Eccentricity
0.0000992
Mean motion
15.33443924 rev/d
Perigee alt
464.9 km
Apogee alt
466.2 km
Semi-major
6,843.7 km
B*
4.8618e-4
RAAN
178.3885°
Arg perigee
235.3369°
Mean anomaly
124.7780°
Rev number
1,728

§ Raw data

STARLINK-366991 67652U 26022E   26145.08727530  .00015652  00000+0  48618-3 0  99962 67652  97.2860 178.3885 0000992 235.3369 124.7780 15.33443924 17286

JSON: /api/v1/satellites/67652 · /tle

For live sub-satellite position, see the globe view (requires WebGL).

§ Visibility from observer

Set your observer location to see the next 7 days of passes ≥ 10°. The values pass through the URL so the page stays shareable.

No JS? Fill the form by hand. The geolocation button needs JavaScript.